Location: Latina
(41.4670°N, 12.8670°E)
Time: 18:33:34
(UTC+02:00)

ISS - Pass Details

Date: 14 May 2021
Orbit: 417 x 422 km, 51.6° (Epoch: 18 June)

Event Time Altitude Azimuth Distance (km) Brightness Sun altitude
Exits shadow 01:17:28 15° 355° (N) 1,225 -0.6 -29.8°
Drops below altitude 10° 01:19:31 10° 32° (NNE) 1,508 -0.2 -29.8°
Sets 01:22:17 0° 56° (NE) 2,375 0.6 -29.8°
